Time,TemperatureF,DewpointF,PressureIn,WindDirection,WindDirectionDegrees,WindSpeedMPH,WindSpeedGustMPH,Humidity,HourlyPrecipIn,Conditions,Clouds,dailyrainin,SoftwareType,DateUTC
2013-03-28 00:00:00,33.8,32.5,29.81,WNW,292,7.0,14.0,95,0.00,,,0.00,Weather View 32 v70,2013-03-28 04:00:00,
2013-03-28 00:05:00,33.8,32.5,29.81,WNW,292,9.0,11.0,95,0.00,,,0.00,Weather View 32 v70,2013-03-28 04:05:00,
2013-03-28 00:10:00,33.8,32.5,29.81,West,270,5.0,13.0,95,0.00,,,0.00,Weather View 32 v70,2013-03-28 04:10:00,
2013-03-28 00:15:00,33.7,32.4,29.81,WNW,292,6.0,13.0,95,0.00,,,0.00,Weather View 32 v70,2013-03-28 04:15:00,
2013-03-28 00:20:00,33.6,32.3,29.81,WNW,292,6.0,13.0,95,0.00,,,0.00,Weather View 32 v70,2013-03-28 04:20:00,
2013-03-28 00:25:00,33.6,32.3,29.81,West,270,6.0,13.0,95,0.00,,,0.00,Weather View 32 v70,2013-03-28 04:25:00,
2013-03-28 00:30:00,33.5,32.2,29.81,WNW,292,9.0,13.0,95,0.00,,,0.00,Weather View 32 v70,2013-03-28 04:30:00,
2013-03-28 00:35:00,33.6,32.3,29.81,West,270,5.0,13.0,95,0.00,,,0.00,Weather View 32 v70,2013-03-28 04:35:00,
2013-03-28 00:40:00,33.5,32.2,29.81,WNW,292,8.0,13.0,95,0.00,,,0.00,Weather View 32 v70,2013-03-28 04:40:00,
2013-03-28 00:45:00,33.4,32.1,29.81,WNW,292,6.0,13.0,95,0.00,,,0.00,Weather View 32 v70,2013-03-28 04:45:00,
2013-03-28 00:50:00,33.2,31.9,29.81,WNW,292,7.0,13.0,95,0.00,,,0.00,Weather View 32 v70,2013-03-28 04:50:00,
2013-03-28 00:55:00,32.9,31.6,29.81,WNW,292,6.0,13.0,95,0.00,,,0.00,Weather View 32 v70,2013-03-28 04:55:00,
2013-03-28 01:00:00,32.9,31.6,29.81,WNW,292,6.0,13.0,95,0.00,,,0.00,Weather View 32 v70,2013-03-28 05:00:00,
2013-03-28 01:05:00,32.7,31.4,29.81,WNW,292,5.0,13.0,95,0.00,,,0.00,Weather View 32 v70,2013-03-28 05:05:00,
2013-03-28 01:10:00,32.6,31.3,29.81,West,270,5.0,12.0,95,0.00,,,0.00,Weather View 32 v70,2013-03-28 05:10:00,
2013-03-28 01:15:00,32.5,31.2,29.81,WNW,292,4.0,12.0,95,0.00,,,0.00,Weather View 32 v70,2013-03-28 05:15:00,
2013-03-28 01:20:00,32.5,31.2,29.81,West,270,5.0,12.0,95,0.00,,,0.00,Weather View 32 v70,2013-03-28 05:20:00,
2013-03-28 01:25:00,32.4,31.1,29.81,WNW,292,6.0,12.0,95,0.00,,,0.00,Weather View 32 v70,2013-03-28 05:25:00,
2013-03-28 01:30:00,32.4,31.1,29.81,West,270,3.0,12.0,95,0.00,,,0.00,Weather View 32 v70,2013-03-28 05:30:00,
2013-03-28 01:35:00,32.3,31.0,29.81,WNW,292,7.0,12.0,95,0.00,,,0.00,Weather View 32 v70,2013-03-28 05:35:00,
2013-03-28 01:40:00,32.3,31.0,29.81,WNW,292,4.0,12.0,95,0.00,,,0.00,Weather View 32 v70,2013-03-28 05:40:00,
2013-03-28 01:45:00,32.2,30.9,29.81,WSW,247,5.0,12.0,95,0.00,,,0.00,Weather View 32 v70,2013-03-28 05:45:00,
2013-03-28 01:50:00,32.1,30.8,29.81,WNW,292,2.0,11.0,95,0.00,,,0.00,Weather View 32 v70,2013-03-28 05:50:00,
2013-03-28 01:55:00,32.1,30.8,29.81,West,270,4.0,10.0,95,0.00,,,0.00,Weather View 32 v70,2013-03-28 05:55:00,
2013-03-28 02:00:00,32.0,30.7,29.81,West,270,2.0,9.0,95,0.00,,,0.00,Weather View 32 v70,2013-03-28 06:00:00,
2013-03-28 02:05:00,31.9,30.6,29.81,WNW,292,4.0,9.0,95,0.00,,,0.00,Weather View 32 v70,2013-03-28 06:05:00,
2013-03-28 02:10:00,31.9,30.6,29.81,WNW,292,3.0,9.0,95,0.00,,,0.00,Weather View 32 v70,2013-03-28 06:10:00,
2013-03-28 02:15:00,31.9,30.6,29.81,West,270,3.0,9.0,95,0.00,,,0.00,Weather View 32 v70,2013-03-28 06:15:00,
2013-03-28 02:20:00,31.9,30.6,29.80,West,270,2.0,9.0,95,0.00,,,0.00,Weather View 32 v70,2013-03-28 06:20:00,
2013-03-28 02:25:00,31.9,30.6,29.80,West,270,2.0,9.0,95,0.00,,,0.00,Weather View 32 v70,2013-03-28 06:25:00,
2013-03-28 02:30:00,31.9,30.6,29.80,WNW,292,4.0,9.0,95,0.00,,,0.00,Weather View 32 v70,2013-03-28 06:30:00,
2013-03-28 02:35:00,31.9,30.6,29.80,West,270,4.0,9.0,95,0.00,,,0.00,Weather View 32 v70,2013-03-28 06:35:00,
2013-03-28 02:40:00,31.9,30.6,29.80,West,270,2.0,9.0,95,0.00,,,0.00,Weather View 32 v70,2013-03-28 06:40:00,
2013-03-28 02:45:00,31.9,30.6,29.80,WNW,292,3.0,9.0,95,0.00,,,0.00,Weather View 32 v70,2013-03-28 06:45:00,
2013-03-28 02:50:00,31.9,30.6,29.80,West,270,4.0,9.0,95,0.00,,,0.00,Weather View 32 v70,2013-03-28 06:50:00,
2013-03-28 02:55:00,31.8,30.5,29.80,WNW,292,4.0,9.0,95,0.00,,,0.00,Weather View 32 v70,2013-03-28 06:55:00,
2013-03-28 03:00:00,31.9,30.6,29.80,WNW,292,6.0,9.0,95,0.00,,,0.00,Weather View 32 v70,2013-03-28 07:00:00,
2013-03-28 03:05:00,31.9,30.6,29.80,West,270,5.0,9.0,95,0.00,,,0.00,Weather View 32 v70,2013-03-28 07:05:00,
2013-03-28 03:10:00,31.9,30.6,29.80,WNW,292,1.0,9.0,95,0.00,,,0.00,Weather View 32 v70,2013-03-28 07:10:00,
2013-03-28 03:15:00,31.9,30.6,29.80,WNW,292,2.0,9.0,95,0.00,,,0.00,Weather View 32 v70,2013-03-28 07:15:00,
2013-03-28 03:20:00,31.9,30.6,29.81,WNW,292,3.0,9.0,95,0.00,,,0.00,Weather View 32 v70,2013-03-28 07:20:00,
2013-03-28 03:25:00,31.9,30.6,29.80,West,270,2.0,9.0,95,0.00,,,0.00,Weather View 32 v70,2013-03-28 07:25:00,
2013-03-28 03:30:00,31.9,30.6,29.81,SW,225,3.0,9.0,95,0.00,,,0.00,Weather View 32 v70,2013-03-28 07:30:00,
2013-03-28 03:35:00,31.8,30.5,29.81,West,270,3.0,9.0,95,0.00,,,0.00,Weather View 32 v70,2013-03-28 07:35:00,
2013-03-28 03:40:00,31.8,30.5,29.81,West,270,4.0,9.0,95,0.00,,,0.00,Weather View 32 v70,2013-03-28 07:40:00,
2013-03-28 03:45:00,31.8,30.5,29.81,West,270,4.0,8.0,95,0.00,,,0.00,Weather View 32 v70,2013-03-28 07:45:00,
2013-03-28 03:50:00,31.8,30.5,29.81,WNW,292,2.0,8.0,95,0.00,,,0.00,Weather View 32 v70,2013-03-28 07:50:00,
2013-03-28 03:55:00,31.7,30.4,29.81,WNW,292,4.0,8.0,95,0.00,,,0.00,Weather View 32 v70,2013-03-28 07:55:00,
2013-03-28 04:00:00,31.6,30.3,29.81,West,270,6.0,8.0,95,0.00,,,0.00,Weather View 32 v70,2013-03-28 08:00:00,
2013-03-28 04:05:00,31.6,30.3,29.81,WNW,292,4.0,8.0,95,0.00,,,0.00,Weather View 32 v70,2013-03-28 08:05:00,
2013-03-28 04:10:00,31.6,30.3,29.81,WNW,292,3.0,7.0,95,0.00,,,0.00,Weather View 32 v70,2013-03-28 08:10:00,
2013-03-28 04:15:00,31.6,30.3,29.81,WNW,292,2.0,7.0,95,0.00,,,0.00,Weather View 32 v70,2013-03-28 08:15:00,
2013-03-28 04:20:00,31.6,30.3,29.81,WNW,292,4.0,7.0,95,0.00,,,0.00,Weather View 32 v70,2013-03-28 08:20:00,
2013-03-28 04:25:00,31.6,30.3,29.81,West,270,2.0,7.0,95,0.00,,,0.00,Weather View 32 v70,2013-03-28 08:25:00,
2013-03-28 04:30:00,31.6,30.3,29.81,West,270,4.0,7.0,95,0.00,,,0.00,Weather View 32 v70,2013-03-28 08:30:00,
2013-03-28 04:35:00,31.6,30.3,29.81,WNW,292,4.0,7.0,95,0.00,,,0.00,Weather View 32 v70,2013-03-28 08:35:00,
2013-03-28 04:40:00,31.5,30.2,29.81,West,270,6.0,7.0,95,0.00,,,0.00,Weather View 32 v70,2013-03-28 08:40:00,
2013-03-28 04:45:00,31.5,30.2,29.81,WNW,292,2.0,7.0,95,0.00,,,0.00,Weather View 32 v70,2013-03-28 08:45:00,
2013-03-28 04:50:00,31.5,30.2,29.81,WNW,292,1.0,7.0,95,0.00,,,0.00,Weather View 32 v70,2013-03-28 08:50:00,
2013-03-28 04:55:00,31.5,30.2,29.81,WNW,292,4.0,7.0,95,0.00,,,0.00,Weather View 32 v70,2013-03-28 08:55:00,
2013-03-28 05:00:00,31.4,30.1,29.81,West,270,1.0,7.0,95,0.00,,,0.00,Weather View 32 v70,2013-03-28 09:00:00,
2013-03-28 05:05:00,31.4,30.1,29.81,West,270,2.0,7.0,95,0.00,,,0.00,Weather View 32 v70,2013-03-28 09:05:00,
2013-03-28 05:10:00,31.4,30.1,29.81,WNW,292,2.0,7.0,95,0.00,,,0.00,Weather View 32 v70,2013-03-28 09:10:00,
2013-03-28 05:15:00,31.4,30.1,29.81,WNW,292,2.0,7.0,95,0.00,,,0.00,Weather View 32 v70,2013-03-28 09:15:00,
2013-03-28 05:20:00,31.4,30.1,29.82,West,270,2.0,6.0,95,0.00,,,0.00,Weather View 32 v70,2013-03-28 09:20:00,
2013-03-28 05:25:00,31.4,30.1,29.82,West,270,2.0,6.0,95,0.00,,,0.00,Weather View 32 v70,2013-03-28 09:25:00,
2013-03-28 05:30:00,31.3,30.0,29.82,West,270,1.0,6.0,95,0.00,,,0.00,Weather View 32 v70,2013-03-28 09:30:00,
2013-03-28 05:35:00,31.3,30.0,29.82,West,270,0.0,6.0,95,0.00,,,0.00,Weather View 32 v70,2013-03-28 09:35:00,
2013-03-28 05:40:00,31.2,29.9,29.82,SSW,202,0.0,6.0,95,0.00,,,0.00,Weather View 32 v70,2013-03-28 09:40:00,
2013-03-28 05:45:00,31.2,29.9,29.82,SSW,202,1.0,6.0,95,0.00,,,0.00,Weather View 32 v70,2013-03-28 09:45:00,
2013-03-28 05:50:00,31.1,29.8,29.82,SSW,202,0.0,5.0,95,0.00,,,0.00,Weather View 32 v70,2013-03-28 09:50:00,
2013-03-28 05:56:00,31.2,29.9,29.82,West,270,0.0,5.0,95,0.00,,,0.00,Weather View 32 v70,2013-03-28 09:56:00,
2013-03-28 06:01:00,31.2,29.9,29.82,West,270,0.0,4.0,95,0.00,,,0.00,Weather View 32 v70,2013-03-28 10:01:00,
2013-03-28 06:06:00,31.2,29.9,29.83,West,270,0.0,4.0,95,0.00,,,0.00,Weather View 32 v70,2013-03-28 10:06:00,
2013-03-28 06:11:00,31.2,29.9,29.83,West,270,2.0,4.0,95,0.00,,,0.00,Weather View 32 v70,2013-03-28 10:11:00,
2013-03-28 06:16:00,31.2,29.9,29.83,West,270,1.0,4.0,95,0.00,,,0.00,Weather View 32 v70,2013-03-28 10:16:00,
2013-03-28 06:21:00,31.2,29.9,29.83,West,270,0.0,4.0,95,0.00,,,0.00,Weather View 32 v70,2013-03-28 10:21:00,
2013-03-28 06:26:00,31.1,29.8,29.83,WSW,247,2.0,3.0,95,0.00,,,0.00,Weather View 32 v70,2013-03-28 10:26:00,
2013-03-28 06:31:00,31.1,29.8,29.83,WSW,247,1.0,3.0,95,0.00,,,0.00,Weather View 32 v70,2013-03-28 10:31:00,
2013-03-28 06:36:00,31.1,29.8,29.83,WSW,247,0.0,2.0,95,0.00,,,0.00,Weather View 32 v70,2013-03-28 10:36:00,
2013-03-28 06:41:00,31.1,29.8,29.83,SW,225,1.0,2.0,95,0.00,,,0.00,Weather View 32 v70,2013-03-28 10:41:00,
2013-03-28 06:46:00,31.1,29.8,29.83,SSW,202,1.0,2.0,95,0.00,,,0.00,Weather View 32 v70,2013-03-28 10:46:00,
2013-03-28 06:51:00,31.2,29.9,29.83,South,180,1.0,2.0,95,0.00,,,0.00,Weather View 32 v70,2013-03-28 10:51:00,
2013-03-28 06:56:00,31.2,29.9,29.83,South,180,2.0,2.0,95,0.00,,,0.00,Weather View 32 v70,2013-03-28 10:56:00,
2013-03-28 07:01:00,31.2,29.9,29.83,SSW,202,1.0,2.0,95,0.00,,,0.00,Weather View 32 v70,2013-03-28 11:01:00,
2013-03-28 07:06:00,31.3,30.0,29.84,WSW,247,1.0,4.0,95,0.00,,,0.00,Weather View 32 v70,2013-03-28 11:06:00,
2013-03-28 07:11:00,31.4,30.1,29.84,WSW,247,1.0,4.0,95,0.00,,,0.00,Weather View 32 v70,2013-03-28 11:11:00,
2013-03-28 07:16:00,31.3,30.0,29.84,WSW,247,0.0,4.0,95,0.00,,,0.00,Weather View 32 v70,2013-03-28 11:16:00,
2013-03-28 07:21:00,31.6,30.3,29.84,WSW,247,2.0,4.0,95,0.00,,,0.00,Weather View 32 v70,2013-03-28 11:21:00,
2013-03-28 07:26:00,31.8,30.5,29.85,West,270,1.0,4.0,95,0.00,,,0.00,Weather View 32 v70,2013-03-28 11:26:00,
2013-03-28 07:31:00,31.9,30.6,29.85,West,270,2.0,4.0,95,0.00,,,0.00,Weather View 32 v70,2013-03-28 11:31:00,
2013-03-28 07:36:00,32.1,30.8,29.85,West,270,2.0,4.0,95,0.00,,,0.00,Weather View 32 v70,2013-03-28 11:36:00,
2013-03-28 07:41:00,32.2,30.9,29.85,West,270,2.0,4.0,95,0.00,,,0.00,Weather View 32 v70,2013-03-28 11:41:00,
2013-03-28 07:47:00,32.3,31.0,29.85,West,270,0.0,4.0,95,0.00,,,0.00,Weather View 32 v70,2013-03-28 11:47:00,
2013-03-28 07:52:00,32.4,31.1,29.85,West,270,0.0,4.0,95,0.00,,,0.00,Weather View 32 v70,2013-03-28 11:52:00,
2013-03-28 07:57:00,32.4,31.1,29.85,West,270,1.0,4.0,95,0.00,,,0.00,Weather View 32 v70,2013-03-28 11:57:00,
2013-03-28 08:02:00,32.5,31.2,29.86,West,270,1.0,4.0,95,0.00,,,0.00,Weather View 32 v70,2013-03-28 12:02:00,
2013-03-28 08:07:00,32.6,31.3,29.86,West,270,1.0,3.0,95,0.00,,,0.00,Weather View 32 v70,2013-03-28 12:07:00,
2013-03-28 08:12:00,32.7,31.4,29.86,West,270,2.0,3.0,95,0.00,,,0.00,Weather View 32 v70,2013-03-28 12:12:00,
2013-03-28 08:17:00,32.7,31.4,29.86,West,270,2.0,3.0,95,0.00,,,0.00,Weather View 32 v70,2013-03-28 12:17:00,
2013-03-28 08:22:00,32.9,31.6,29.87,West,270,2.0,3.0,95,0.00,,,0.00,Weather View 32 v70,2013-03-28 12:22:00,
2013-03-28 08:27:00,33.0,31.7,29.87,West,270,1.0,4.0,95,0.00,,,0.00,Weather View 32 v70,2013-03-28 12:27:00,
2013-03-28 08:32:00,33.2,31.9,29.87,WNW,292,2.0,4.0,95,0.00,,,0.00,Weather View 32 v70,2013-03-28 12:32:00,
2013-03-28 08:37:00,33.3,32.0,29.87,WNW,292,2.0,4.0,95,0.00,,,0.00,Weather View 32 v70,2013-03-28 12:37:00,
2013-03-28 08:42:00,33.4,32.1,29.87,WNW,292,1.0,4.0,95,0.00,,,0.00,Weather View 32 v70,2013-03-28 12:42:00,
2013-03-28 08:47:00,33.7,32.4,29.87,WNW,292,4.0,4.0,95,0.00,,,0.00,Weather View 32 v70,2013-03-28 12:47:00,
2013-03-28 08:52:00,33.9,32.6,29.87,NW,315,2.0,4.0,95,0.00,,,0.00,Weather View 32 v70,2013-03-28 12:52:00,
2013-03-28 08:57:00,34.0,32.7,29.87,WNW,292,1.0,4.0,95,0.00,,,0.00,Weather View 32 v70,2013-03-28 12:57:00,
2013-03-28 09:02:00,34.2,32.9,29.87,WNW,292,1.0,4.0,95,0.00,,,0.00,Weather View 32 v70,2013-03-28 13:02:00,
2013-03-28 09:07:00,34.3,33.0,29.87,WNW,292,2.0,4.0,95,0.00,,,0.00,Weather View 32 v70,2013-03-28 13:07:00,
2013-03-28 09:12:00,34.7,33.4,29.87,WNW,292,2.0,4.0,95,0.00,,,0.00,Weather View 32 v70,2013-03-28 13:12:00,
2013-03-28 09:17:00,34.9,33.6,29.87,WNW,292,1.0,4.0,95,0.00,,,0.00,Weather View 32 v70,2013-03-28 13:17:00,
2013-03-28 09:22:00,34.9,33.6,29.87,WNW,292,2.0,4.0,95,0.00,,,0.00,Weather View 32 v70,2013-03-28 13:22:00,
2013-03-28 09:27:00,35.2,33.9,29.88,WNW,292,2.0,4.0,95,0.00,,,0.00,Weather View 32 v70,2013-03-28 13:27:00,
2013-03-28 09:32:00,35.6,34.3,29.88,WNW,292,2.0,4.0,95,0.00,,,0.00,Weather View 32 v70,2013-03-28 13:32:00,
2013-03-28 09:37:00,35.9,34.6,29.88,WNW,292,2.0,4.0,95,0.00,,,0.00,Weather View 32 v70,2013-03-28 13:37:00,
2013-03-28 09:42:00,35.9,34.6,29.88,WNW,292,2.0,4.0,95,0.00,,,0.00,Weather View 32 v70,2013-03-28 13:42:00,
2013-03-28 09:47:00,36.3,35.0,29.89,NW,315,2.0,4.0,95,0.00,,,0.00,Weather View 32 v70,2013-03-28 13:47:00,
2013-03-28 09:52:00,36.2,34.9,29.89,WNW,292,4.0,4.0,95,0.00,,,0.00,Weather View 32 v70,2013-03-28 13:52:00,
2013-03-28 09:57:00,36.6,35.3,29.89,WNW,292,1.0,4.0,95,0.00,,,0.00,Weather View 32 v70,2013-03-28 13:57:00,
2013-03-28 10:02:00,36.9,35.6,29.89,NW,315,2.0,4.0,95,0.00,,,0.00,Weather View 32 v70,2013-03-28 14:02:00,
2013-03-28 10:07:00,36.9,35.6,29.89,NW,315,2.0,4.0,95,0.00,,,0.00,Weather View 32 v70,2013-03-28 14:07:00,
2013-03-28 10:12:00,37.2,35.9,29.89,WNW,292,2.0,4.0,95,0.00,,,0.00,Weather View 32 v70,2013-03-28 14:12:00,
2013-03-28 10:17:00,37.8,36.5,29.89,WSW,247,0.0,4.0,95,0.00,,,0.00,Weather View 32 v70,2013-03-28 14:17:00,
2013-03-28 10:22:00,38.7,35.4,29.89,NW,315,1.0,4.0,88,0.00,,,0.00,Weather View 32 v70,2013-03-28 14:22:00,
2013-03-28 10:27:00,38.9,37.9,29.90,WNW,292,2.0,4.0,96,0.00,,,0.00,Weather View 32 v70,2013-03-28 14:27:00,
2013-03-28 10:32:00,38.9,37.0,29.90,WNW,292,4.0,7.0,93,0.00,,,0.00,Weather View 32 v70,2013-03-28 14:32:00,
2013-03-28 10:37:00,38.8,37.8,29.90,WNW,292,3.0,7.0,96,0.00,,,0.00,Weather View 32 v70,2013-03-28 14:37:00,
2013-03-28 10:42:00,39.2,38.2,29.90,NW,315,2.0,7.0,96,0.00,,,0.00,Weather View 32 v70,2013-03-28 14:42:00,
2013-03-28 10:47:00,39.5,37.4,29.91,West,270,6.0,7.0,92,0.00,,,0.00,Weather View 32 v70,2013-03-28 14:47:00,
2013-03-28 10:52:00,39.7,37.3,29.90,NNW,337,1.0,8.0,91,0.00,,,0.00,Weather View 32 v70,2013-03-28 14:52:00,
2013-03-28 10:57:00,40.1,37.4,29.91,WNW,292,2.0,8.0,90,0.00,,,0.00,Weather View 32 v70,2013-03-28 14:57:00,
2013-03-28 11:02:00,39.9,36.9,29.91,WNW,292,4.0,8.0,89,0.00,,,0.00,Weather View 32 v70,2013-03-28 15:02:00,
2013-03-28 11:07:00,39.6,34.6,29.91,WNW,292,5.0,8.0,82,0.00,,,0.00,Weather View 32 v70,2013-03-28 15:07:00,
2013-03-28 11:12:00,39.5,35.1,29.91,WNW,292,6.0,8.0,84,0.00,,,0.00,Weather View 32 v70,2013-03-28 15:12:00,
2013-03-28 11:17:00,39.8,36.0,29.91,NNW,337,3.0,8.0,86,0.00,,,0.00,Weather View 32 v70,2013-03-28 15:17:00,
2013-03-28 11:23:00,39.9,36.6,29.90,WSW,247,1.0,8.0,88,0.00,,,0.00,Weather View 32 v70,2013-03-28 15:23:00,
2013-03-28 11:28:00,40.5,34.2,29.90,NW,315,2.0,8.0,78,0.00,,,0.00,Weather View 32 v70,2013-03-28 15:28:00,
2013-03-28 11:33:00,40.9,35.2,29.90,SSE,157,2.0,8.0,80,0.00,,,0.00,Weather View 32 v70,2013-03-28 15:33:00,
2013-03-28 11:38:00,40.8,34.8,29.90,WNW,292,4.0,8.0,79,0.00,,,0.00,Weather View 32 v70,2013-03-28 15:38:00,
2013-03-28 11:43:00,41.6,35.9,29.90,WNW,292,2.0,8.0,80,0.00,,,0.00,Weather View 32 v70,2013-03-28 15:43:00,
2013-03-28 11:48:00,42.4,36.3,29.90,West,270,2.0,8.0,79,0.00,,,0.00,Weather View 32 v70,2013-03-28 15:48:00,
2013-03-28 11:53:00,43.1,32.9,29.90,NW,315,0.0,7.0,67,0.00,,,0.00,Weather View 32 v70,2013-03-28 15:53:00,
2013-03-28 11:58:00,43.8,33.2,29.90,East,90,0.0,7.0,66,0.00,,,0.00,Weather View 32 v70,2013-03-28 15:58:00,
2013-03-28 12:03:00,42.9,33.8,29.90,NW,315,2.0,7.0,70,0.00,,,0.00,Weather View 32 v70,2013-03-28 16:03:00,
2013-03-28 12:08:00,42.9,33.4,29.90,WSW,247,2.0,7.0,69,0.00,,,0.00,Weather View 32 v70,2013-03-28 16:08:00,
2013-03-28 12:13:00,43.2,32.2,29.90,West,270,3.0,7.0,65,0.00,,,0.00,Weather View 32 v70,2013-03-28 16:13:00,
2013-03-28 12:18:00,43.2,31.4,29.90,WNW,292,5.0,7.0,63,0.00,,,0.00,Weather View 32 v70,2013-03-28 16:18:00,
2013-03-28 12:23:00,41.4,30.5,29.90,WNW,292,5.0,7.0,65,0.00,,,0.00,Weather View 32 v70,2013-03-28 16:23:00,
2013-03-28 12:28:00,42.5,31.2,29.90,WSW,247,1.0,7.0,64,0.00,,,0.00,Weather View 32 v70,2013-03-28 16:28:00,
2013-03-28 12:35:00,42.4,28.2,29.90,WNW,292,4.0,9.0,57,0.00,,,0.00,Weather View 32 v70,2013-03-28 16:35:00,
2013-03-28 12:45:00,42.8,28.2,29.89,WNW,292,4.0,9.0,56,0.00,,,0.00,Weather View 32 v70,2013-03-28 16:45:00,
2013-03-28 12:50:00,42.9,30.0,29.89,WNW,292,4.0,9.0,60,0.00,,,0.00,Weather View 32 v70,2013-03-28 16:50:00,
2013-03-28 12:55:00,41.8,30.1,29.89,WNW,292,7.0,9.0,63,0.00,,,0.00,Weather View 32 v70,2013-03-28 16:55:00,
2013-03-28 13:00:00,42.2,29.3,29.89,NNW,337,2.0,10.0,60,0.00,,,0.00,Weather View 32 v70,2013-03-28 17:00:00,
2013-03-28 13:05:00,41.3,28.8,29.89,West,270,3.0,10.0,61,0.00,,,0.00,Weather View 32 v70,2013-03-28 17:05:00,
2013-03-28 13:10:00,41.5,30.6,29.89,West,270,4.0,10.0,65,0.00,,,0.00,Weather View 32 v70,2013-03-28 17:10:00,
2013-03-28 13:15:00,41.2,32.8,29.89,WNW,292,3.0,10.0,72,0.00,,,0.00,Weather View 32 v70,2013-03-28 17:15:00,
2013-03-28 13:20:00,41.2,32.8,29.89,WSW,247,4.0,10.0,72,0.00,,,0.00,Weather View 32 v70,2013-03-28 17:20:00,
2013-03-28 13:25:00,41.3,30.0,29.89,WNW,292,5.0,10.0,64,0.00,,,0.00,Weather View 32 v70,2013-03-28 17:25:00,
2013-03-28 13:30:00,40.9,31.5,29.89,NW,315,4.0,10.0,69,0.00,,,0.00,Weather View 32 v70,2013-03-28 17:30:00,
2013-03-28 13:35:00,41.3,30.8,29.89,WNW,292,6.0,10.0,66,0.00,,,0.00,Weather View 32 v70,2013-03-28 17:35:00,
2013-03-28 13:40:00,40.8,30.3,29.89,WNW,292,6.0,10.0,66,0.00,,,0.00,Weather View 32 v70,2013-03-28 17:40:00,
2013-03-28 13:45:00,41.1,31.0,29.89,WNW,292,3.0,10.0,67,0.00,,,0.00,Weather View 32 v70,2013-03-28 17:45:00,
2013-03-28 13:55:00,41.1,31.0,29.89,WNW,292,4.0,10.0,67,0.00,,,0.00,Weather View 32 v70,2013-03-28 17:55:00,
2013-03-28 14:00:00,41.2,29.5,29.89,West,270,5.0,9.0,63,0.00,,,0.00,Weather View 32 v70,2013-03-28 18:00:00,
2013-03-28 14:05:00,41.8,26.4,29.89,WNW,292,6.0,9.0,54,0.00,,,0.00,Weather View 32 v70,2013-03-28 18:05:00,
2013-03-28 14:10:00,41.4,28.1,29.89,NW,315,4.0,9.0,59,0.00,,,0.00,Weather View 32 v70,2013-03-28 18:10:00,
2013-03-28 14:15:00,41.4,31.6,29.89,WNW,292,4.0,9.0,68,0.00,,,0.00,Weather View 32 v70,2013-03-28 18:15:00,
2013-03-28 14:20:00,41.6,28.3,29.89,WNW,292,7.0,9.0,59,0.00,,,0.00,Weather View 32 v70,2013-03-28 18:20:00,
2013-03-28 14:25:00,42.3,27.7,29.89,WNW,292,5.0,9.0,56,0.00,,,0.00,Weather View 32 v70,2013-03-28 18:25:00,
2013-03-28 14:30:00,42.4,27.4,29.89,WNW,292,6.0,9.0,55,0.00,,,0.00,Weather View 32 v70,2013-03-28 18:30:00,
2013-03-28 14:35:00,42.3,28.1,29.89,NW,315,1.0,9.0,57,0.00,,,0.00,Weather View 32 v70,2013-03-28 18:35:00,
2013-03-28 14:40:00,42.9,28.3,29.89,WNW,292,4.0,9.0,56,0.00,,,0.00,Weather View 32 v70,2013-03-28 18:40:00,
2013-03-28 14:45:00,43.1,27.6,29.89,WNW,292,2.0,9.0,54,0.00,,,0.00,Weather View 32 v70,2013-03-28 18:45:00,
2013-03-28 14:50:00,43.3,28.2,29.89,WNW,292,4.0,9.0,55,0.00,,,0.00,Weather View 32 v70,2013-03-28 18:50:00,
2013-03-28 14:55:00,43.1,28.0,29.88,WNW,292,3.0,9.0,55,0.00,,,0.00,Weather View 32 v70,2013-03-28 18:55:00,
2013-03-28 15:00:00,43.2,27.7,29.88,WNW,292,6.0,9.0,54,0.00,,,0.00,Weather View 32 v70,2013-03-28 19:00:00,
2013-03-28 15:05:00,42.6,29.3,29.88,NW,315,6.0,9.0,59,0.00,,,0.00,Weather View 32 v70,2013-03-28 19:05:00,
2013-03-28 15:10:00,42.4,31.8,29.88,WNW,292,6.0,10.0,66,0.00,,,0.00,Weather View 32 v70,2013-03-28 19:10:00,
2013-03-28 15:15:00,42.8,33.3,29.88,WNW,292,2.0,10.0,69,0.00,,,0.00,Weather View 32 v70,2013-03-28 19:15:00,
2013-03-28 15:20:00,42.6,28.8,29.88,WNW,292,5.0,10.0,58,0.00,,,0.00,Weather View 32 v70,2013-03-28 19:20:00,
2013-03-28 15:25:00,42.4,29.5,29.88,WNW,292,7.0,10.0,60,0.00,,,0.00,Weather View 32 v70,2013-03-28 19:25:00,
2013-03-28 15:30:00,42.4,28.2,29.88,WNW,292,5.0,10.0,57,0.00,,,0.00,Weather View 32 v70,2013-03-28 19:30:00,
2013-03-28 15:35:00,42.3,29.0,29.88,WNW,292,5.0,10.0,59,0.00,,,0.00,Weather View 32 v70,2013-03-28 19:35:00,
2013-03-28 15:40:00,42.0,31.8,29.88,WNW,292,2.0,10.0,67,0.00,,,0.00,Weather View 32 v70,2013-03-28 19:40:00,
2013-03-28 15:45:00,42.3,28.6,29.88,WNW,292,5.0,10.0,58,0.00,,,0.00,Weather View 32 v70,2013-03-28 19:45:00,
2013-03-28 15:50:00,42.3,29.0,29.89,WNW,292,5.0,10.0,59,0.00,,,0.00,Weather View 32 v70,2013-03-28 19:50:00,
2013-03-28 15:55:00,42.4,28.6,29.88,NW,315,4.0,10.0,58,0.00,,,0.00,Weather View 32 v70,2013-03-28 19:55:00,
2013-03-28 16:00:00,42.4,28.6,29.89,NW,315,3.0,10.0,58,0.00,,,0.00,Weather View 32 v70,2013-03-28 20:00:00,
2013-03-28 16:05:00,41.9,29.8,29.89,NNW,337,2.0,10.0,62,0.00,,,0.00,Weather View 32 v70,2013-03-28 20:05:00,
2013-03-28 16:10:00,42.2,30.5,29.89,WNW,292,2.0,9.0,63,0.00,,,0.00,Weather View 32 v70,2013-03-28 20:10:00,
2013-03-28 16:15:00,42.3,29.4,29.89,NW,315,1.0,8.0,60,0.00,,,0.00,Weather View 32 v70,2013-03-28 20:15:00,
2013-03-28 16:20:00,42.5,30.0,29.89,NW,315,1.0,8.0,61,0.00,,,0.00,Weather View 32 v70,2013-03-28 20:20:00,
2013-03-28 16:25:00,42.5,30.4,29.89,West,270,1.0,8.0,62,0.00,,,0.00,Weather View 32 v70,2013-03-28 20:25:00,
2013-03-28 16:30:00,42.1,29.2,29.89,WNW,292,6.0,9.0,60,0.00,,,0.00,Weather View 32 v70,2013-03-28 20:30:00,
2013-03-28 16:35:00,41.5,32.8,29.89,NW,315,4.0,9.0,71,0.00,,,0.00,Weather View 32 v70,2013-03-28 20:35:00,
2013-03-28 16:40:00,41.2,34.2,29.89,West,270,6.0,9.0,76,0.00,,,0.00,Weather View 32 v70,2013-03-28 20:40:00,
2013-03-28 16:45:00,40.9,34.6,29.89,WNW,292,6.0,12.0,78,0.00,,,0.00,Weather View 32 v70,2013-03-28 20:45:00,
2013-03-28 16:50:00,41.0,33.7,29.89,WNW,292,4.0,12.0,75,0.00,,,0.00,Weather View 32 v70,2013-03-28 20:50:00,
2013-03-28 16:55:00,41.1,34.1,29.89,West,270,4.0,12.0,76,0.00,,,0.00,Weather View 32 v70,2013-03-28 20:55:00,
2013-03-28 17:00:00,40.9,35.8,29.89,WNW,292,1.0,12.0,82,0.00,,,0.00,Weather View 32 v70,2013-03-28 21:00:00,
2013-03-28 17:05:00,40.5,35.4,29.89,WNW,292,2.0,12.0,82,0.00,,,0.00,Weather View 32 v70,2013-03-28 21:05:00,
2013-03-28 17:10:00,40.8,33.8,29.90,West,270,4.0,12.0,76,0.00,,,0.00,Weather View 32 v70,2013-03-28 21:10:00,
2013-03-28 17:15:00,41.0,34.7,29.90,WNW,292,4.0,12.0,78,0.00,,,0.00,Weather View 32 v70,2013-03-28 21:15:00,
2013-03-28 17:20:00,41.1,37.5,29.90,WNW,292,4.0,12.0,87,0.00,,,0.00,Weather View 32 v70,2013-03-28 21:20:00,
2013-03-28 17:25:00,41.0,35.6,29.90,WNW,292,1.0,12.0,81,0.00,,,0.00,Weather View 32 v70,2013-03-28 21:25:00,
2013-03-28 17:30:00,41.1,34.4,29.90,NW,315,4.0,12.0,77,0.00,,,0.00,Weather View 32 v70,2013-03-28 21:30:00,
2013-03-28 17:35:00,41.2,34.9,29.91,WNW,292,2.0,12.0,78,0.00,,,0.00,Weather View 32 v70,2013-03-28 21:35:00,
2013-03-28 17:40:00,40.9,35.5,29.91,WNW,292,2.0,12.0,81,0.00,,,0.00,Weather View 32 v70,2013-03-28 21:40:00,
2013-03-28 17:45:00,40.8,35.1,29.91,West,270,4.0,8.0,80,0.00,,,0.00,Weather View 32 v70,2013-03-28 21:45:00,
2013-03-28 17:50:00,40.8,34.5,29.91,West,270,3.0,9.0,78,0.00,,,0.00,Weather View 32 v70,2013-03-28 21:50:00,
2013-03-28 17:55:00,40.7,36.5,29.91,WNW,292,5.0,9.0,85,0.00,,,0.00,Weather View 32 v70,2013-03-28 21:55:00,
2013-03-28 18:00:00,40.4,36.8,29.91,WNW,292,3.0,9.0,87,0.00,,,0.00,Weather View 32 v70,2013-03-28 22:00:00,
2013-03-28 18:05:00,40.5,37.8,29.91,West,270,3.0,9.0,90,0.00,,,0.00,Weather View 32 v70,2013-03-28 22:05:00,
2013-03-28 18:10:00,40.5,36.9,29.91,WNW,292,4.0,9.0,87,0.00,,,0.00,Weather View 32 v70,2013-03-28 22:10:00,
2013-03-28 18:15:00,40.5,36.0,29.92,West,270,1.0,9.0,84,0.00,,,0.00,Weather View 32 v70,2013-03-28 22:15:00,
2013-03-28 18:20:00,40.2,37.8,29.92,SSW,202,0.0,9.0,91,0.00,,,0.00,Weather View 32 v70,2013-03-28 22:20:00,
2013-03-28 18:25:00,40.0,37.3,29.92,WNW,292,2.0,9.0,90,0.00,,,0.00,Weather View 32 v70,2013-03-28 22:25:00,
2013-03-28 18:30:00,39.9,37.5,29.92,WNW,292,2.0,9.0,91,0.00,,,0.00,Weather View 32 v70,2013-03-28 22:30:00,
2013-03-28 18:35:00,39.7,37.6,29.93,WNW,292,2.0,9.0,92,0.00,,,0.00,Weather View 32 v70,2013-03-28 22:35:00,
2013-03-28 18:40:00,39.4,38.1,29.93,WSW,247,4.0,9.0,95,0.00,,,0.00,Weather View 32 v70,2013-03-28 22:40:00,
2013-03-28 18:45:00,39.3,38.0,29.93,West,270,0.0,9.0,95,0.00,,,0.00,Weather View 32 v70,2013-03-28 22:45:00,
2013-03-28 18:50:00,39.0,38.0,29.93,SW,225,0.0,9.0,96,0.00,,,0.00,Weather View 32 v70,2013-03-28 22:50:00,
2013-03-28 18:55:00,38.9,37.9,29.93,SSW,202,1.0,7.0,96,0.00,,,0.00,Weather View 32 v70,2013-03-28 22:55:00,
2013-03-28 19:00:00,38.7,37.7,29.93,South,180,2.0,6.0,96,0.00,,,0.00,Weather View 32 v70,2013-03-28 23:00:00,
2013-03-28 19:05:00,38.4,37.4,29.93,SSW,202,1.0,6.0,96,0.00,,,0.00,Weather View 32 v70,2013-03-28 23:05:00,
2013-03-28 19:10:00,38.2,37.2,29.93,SSE,157,1.0,6.0,96,0.00,,,0.00,Weather View 32 v70,2013-03-28 23:10:00,
2013-03-28 19:15:00,38.0,37.0,29.93,South,180,2.0,6.0,96,0.00,,,0.00,Weather View 32 v70,2013-03-28 23:15:00,
2013-03-28 19:20:00,37.9,36.6,29.93,SSE,157,2.0,6.0,95,0.00,,,0.00,Weather View 32 v70,2013-03-28 23:20:00,
2013-03-28 19:25:00,38.0,37.0,29.93,SSE,157,1.0,6.0,96,0.00,,,0.00,Weather View 32 v70,2013-03-28 23:25:00,
2013-03-28 19:30:00,38.2,37.2,29.93,SSW,202,1.0,6.0,96,0.00,,,0.00,Weather View 32 v70,2013-03-28 23:30:00,
2013-03-28 19:35:00,38.1,37.1,29.93,WSW,247,1.0,4.0,96,0.00,,,0.00,Weather View 32 v70,2013-03-28 23:35:00,
2013-03-28 19:40:00,37.9,36.6,29.93,South,180,1.0,4.0,95,0.00,,,0.00,Weather View 32 v70,2013-03-28 23:40:00,
2013-03-28 19:45:00,37.8,36.5,29.93,South,180,2.0,4.0,95,0.00,,,0.00,Weather View 32 v70,2013-03-28 23:45:00,
2013-03-28 19:50:00,37.8,36.5,29.93,SSE,157,1.0,4.0,95,0.00,,,0.00,Weather View 32 v70,2013-03-28 23:50:00,
2013-03-28 19:55:00,37.6,36.3,29.94,SSE,157,2.0,4.0,95,0.00,,,0.00,Weather View 32 v70,2013-03-28 23:55:00,
2013-03-28 20:00:00,37.9,36.6,29.94,SSW,202,1.0,4.0,95,0.00,,,0.00,Weather View 32 v70,2013-03-29 00:00:00,
2013-03-28 20:05:00,38.3,37.3,29.94,SSE,157,1.0,4.0,96,0.00,,,0.00,Weather View 32 v70,2013-03-29 00:05:00,
2013-03-28 20:10:00,38.4,37.4,29.94,WSW,247,1.0,4.0,96,0.00,,,0.00,Weather View 32 v70,2013-03-29 00:10:00,
2013-03-28 20:15:00,38.7,37.7,29.94,WSW,247,1.0,5.0,96,0.00,,,0.00,Weather View 32 v70,2013-03-29 00:15:00,
2013-03-28 20:20:00,39.1,37.0,29.94,SSE,157,2.0,6.0,92,0.00,,,0.00,Weather View 32 v70,2013-03-29 00:20:00,
2013-03-28 20:25:00,39.0,37.7,29.94,SSW,202,2.0,6.0,95,0.00,,,0.00,Weather View 32 v70,2013-03-29 00:25:00,
2013-03-28 20:30:00,38.9,37.3,29.94,WNW,292,2.0,6.0,94,0.00,,,0.00,Weather View 32 v70,2013-03-29 00:30:00,
2013-03-28 20:35:00,39.4,37.5,29.94,South,180,0.0,7.0,93,0.00,,,0.00,Weather View 32 v70,2013-03-29 00:35:00,
2013-03-28 20:40:00,39.4,37.5,29.95,South,180,0.0,7.0,93,0.00,,,0.00,Weather View 32 v70,2013-03-29 00:40:00,
2013-03-28 20:45:00,39.3,37.4,29.94,SW,225,2.0,7.0,93,0.00,,,0.00,Weather View 32 v70,2013-03-29 00:45:00,
2013-03-28 20:50:00,39.2,37.3,29.94,West,270,2.0,7.0,93,0.00,,,0.00,Weather View 32 v70,2013-03-29 00:50:00,
2013-03-28 20:55:00,39.4,35.8,29.95,West,270,2.0,7.0,87,0.00,,,0.00,Weather View 32 v70,2013-03-29 00:55:00,
2013-03-28 21:00:00,39.6,36.9,29.95,WSW,247,4.0,7.0,90,0.00,,,0.00,Weather View 32 v70,2013-03-29 01:00:00,
2013-03-28 21:05:00,39.8,36.8,29.95,West,270,0.0,7.0,89,0.00,,,0.00,Weather View 32 v70,2013-03-29 01:05:00,
2013-03-28 21:10:00,39.5,36.8,29.95,South,180,2.0,7.0,90,0.00,,,0.00,Weather View 32 v70,2013-03-29 01:10:00,
2013-03-28 21:15:00,39.3,37.2,29.95,WSW,247,4.0,7.0,92,0.00,,,0.00,Weather View 32 v70,2013-03-29 01:15:00,
2013-03-28 21:20:00,39.3,36.9,29.95,WSW,247,2.0,7.0,91,0.00,,,0.00,Weather View 32 v70,2013-03-29 01:20:00,
2013-03-28 21:26:00,39.2,37.1,29.95,West,270,5.0,7.0,92,0.00,,,0.00,Weather View 32 v70,2013-03-29 01:26:00,
2013-03-28 21:31:00,39.2,36.8,29.95,WSW,247,0.0,7.0,91,0.00,,,0.00,Weather View 32 v70,2013-03-29 01:31:00,
2013-03-28 21:36:00,39.1,36.7,29.95,WNW,292,3.0,6.0,91,0.00,,,0.00,Weather View 32 v70,2013-03-29 01:36:00,
2013-03-28 21:41:00,39.2,37.1,29.95,WSW,247,2.0,6.0,92,0.00,,,0.00,Weather View 32 v70,2013-03-29 01:41:00,
2013-03-28 21:46:00,39.2,37.1,29.95,WSW,247,1.0,6.0,92,0.00,,,0.00,Weather View 32 v70,2013-03-29 01:46:00,
2013-03-28 21:51:00,39.2,37.3,29.95,WNW,292,4.0,6.0,93,0.00,,,0.00,Weather View 32 v70,2013-03-29 01:51:00,
2013-03-28 21:56:00,39.2,36.8,29.95,West,270,2.0,6.0,91,0.00,,,0.00,Weather View 32 v70,2013-03-29 01:56:00,
2013-03-28 22:01:00,38.9,36.8,29.95,WNW,292,1.0,6.0,92,0.00,,,0.00,Weather View 32 v70,2013-03-29 02:01:00,
2013-03-28 22:06:00,38.8,37.8,29.95,West,270,2.0,6.0,96,0.00,,,0.00,Weather View 32 v70,2013-03-29 02:06:00,
2013-03-28 22:11:00,38.8,37.2,29.95,West,270,1.0,6.0,94,0.00,,,0.00,Weather View 32 v70,2013-03-29 02:11:00,
2013-03-28 22:16:00,38.6,36.5,29.95,WSW,247,2.0,6.0,92,0.00,,,0.00,Weather View 32 v70,2013-03-29 02:16:00,
2013-03-28 22:21:00,38.6,37.0,29.95,WNW,292,5.0,6.0,94,0.00,,,0.00,Weather View 32 v70,2013-03-29 02:21:00,
2013-03-28 22:27:00,38.8,35.8,29.95,WSW,247,3.0,6.0,89,0.00,,,0.00,Weather View 32 v70,2013-03-29 02:27:00,
2013-03-28 22:32:00,38.8,37.2,29.95,WSW,247,2.0,7.0,94,0.00,,,0.00,Weather View 32 v70,2013-03-29 02:32:00,
2013-03-28 22:37:00,38.7,36.0,29.95,WNW,292,2.0,7.0,90,0.00,,,0.00,Weather View 32 v70,2013-03-29 02:37:00,
2013-03-28 22:42:00,38.4,36.3,29.95,WNW,292,1.0,7.0,92,0.00,,,0.00,Weather View 32 v70,2013-03-29 02:42:00,
2013-03-28 22:47:00,38.2,35.8,29.95,WSW,247,2.0,7.0,91,0.00,,,0.00,Weather View 32 v70,2013-03-29 02:47:00,
2013-03-28 22:52:00,38.0,33.6,29.95,SSW,202,0.0,7.0,84,0.00,,,0.00,Weather View 32 v70,2013-03-29 02:52:00,
2013-03-28 22:57:00,37.6,36.0,29.95,West,270,1.0,7.0,94,0.00,,,0.00,Weather View 32 v70,2013-03-29 02:57:00,
2013-03-28 23:02:00,37.5,35.9,29.95,WSW,247,1.0,7.0,94,0.00,,,0.00,Weather View 32 v70,2013-03-29 03:02:00,
2013-03-28 23:07:00,37.6,34.4,29.95,West,270,4.0,7.0,88,0.00,,,0.00,Weather View 32 v70,2013-03-29 03:07:00,
2013-03-28 23:12:00,38.0,35.3,29.95,SW,225,3.0,7.0,90,0.00,,,0.00,Weather View 32 v70,2013-03-29 03:12:00,
2013-03-28 23:17:00,38.0,36.4,29.95,WSW,247,1.0,7.0,94,0.00,,,0.00,Weather View 32 v70,2013-03-29 03:17:00,
2013-03-28 23:22:00,37.9,34.4,29.95,SSW,202,1.0,7.0,87,0.00,,,0.00,Weather View 32 v70,2013-03-29 03:22:00,
2013-03-28 23:27:00,37.9,35.8,29.95,SSE,157,2.0,7.0,92,0.00,,,0.00,Weather View 32 v70,2013-03-29 03:27:00,
2013-03-28 23:32:00,37.9,35.5,29.95,WNW,292,2.0,7.0,91,0.00,,,0.00,Weather View 32 v70,2013-03-29 03:32:00,
2013-03-28 23:37:00,38.2,34.7,29.95,WSW,247,4.0,9.0,87,0.00,,,0.00,Weather View 32 v70,2013-03-29 03:37:00,
2013-03-28 23:42:00,37.9,36.1,29.95,WNW,292,1.0,9.0,93,0.00,,,0.00,Weather View 32 v70,2013-03-29 03:42:00,
2013-03-28 23:47:00,37.9,36.1,29.95,West,270,6.0,9.0,93,0.00,,,0.00,Weather View 32 v70,2013-03-29 03:47:00,
2013-03-28 23:52:00,38.3,33.6,29.95,WNW,292,7.0,9.0,83,0.00,,,0.00,Weather View 32 v70,2013-03-29 03:52:00,
2013-03-28 23:58:00,38.2,35.8,29.95,WNW,292,2.0,9.0,91,0.00,,,0.00,Weather View 32 v70,2013-03-29 03:58:00,